Latest Weather Observations for Karratha

IDW60801

Issued at 8:35 pm WST Thursday 23 October 2014 (issued every 30 minutes, with the page automatically refreshed every 10 minutes)

About weather observations | Map of weather stations | Latest weather observations for WA | Other Formats
Station Details ID: 004083 Name: KARRATHA AERO Lat: -20.71 Lon: 116.77 Height: 5.3 m
Data from the previous 72 hours. | See also: Recent months at Karratha
Date/Time
WST
Temp
°C
App
Temp
°C
Dew
Point
Rel
Hum
%
Delta-T
°C
Wind Press
QNH
hPa
Press
MSL
hPa
Rain
since 9 am
mm
Dir
 
Spd
km/h
Gust
km/h
Spd
kts
Gust
kts
23/08:30pm 27.0 24.2 18.3 59 5.5 WSW 30 35 16 19 1011.2 1011.2 0.0
23/08:00pm 27.2 24.7 19.8 64 4.8 W 32 39 17 21 1010.9 1010.9 0.0
23/07:30pm 27.4 25.1 20.2 65 4.7 W 32 41 17 22 1010.7 1010.7 0.0
23/07:00pm 27.5 25.2 20.6 66 4.5 W 33 43 18 23 1010.4 1010.4 0.0
23/06:30pm 27.6 25.4 21.4 69 4.1 W 35 43 19 23 1010.0 1010.0 0.0
23/06:00pm 27.8 25.4 21.8 70 4.0 W 37 44 20 24 1009.7 1009.7 0.0
23/05:30pm 28.8 25.0 21.3 64 5.0 W 43 52 23 28 1009.4 1009.4 0.0
23/05:00pm 29.7 26.9 21.1 60 5.7 W 37 44 20 24 1009.1 1009.1 0.0
23/04:30pm 30.4 27.1 20.9 57 6.3 W 39 46 21 25 1009.1 1009.1 0.0
23/04:00pm 30.7 26.8 20.3 53 6.9 W 41 46 22 25 1009.2 1009.2 0.0
23/03:30pm 31.3 27.6 19.9 50 7.5 W 39 48 21 26 1009.3 1009.3 0.0
23/03:00pm 32.3 29.2 18.8 44 8.8 W 33 43 18 23 1009.3 1009.3 0.0
23/02:30pm 33.3 30.3 19.0 42 9.4 W 33 41 18 22 1009.6 1009.6 0.0
23/02:00pm 33.8 30.8 18.7 40 9.9 W 32 39 17 21 1009.9 1009.9 0.0
23/01:30pm 35.1 32.7 18.2 36 11.0 W 28 35 15 19 1010.1 1010.1 0.0
23/01:00pm 34.6 32.0 17.8 37 10.9 W 28 37 15 20 1010.5 1010.5 0.0
23/12:30pm 35.5 32.5 16.8 33 12.0 W 28 33 15 18 1010.9 1010.9 0.0
23/12:00pm 35.5 32.3 15.3 30 12.7 W 26 32 14 17 1011.3 1011.3 0.0
23/11:30am 36.0 33.7 16.7 31 12.3 WNW 24 28 13 15 1011.6 1011.6 0.0
23/11:00am 37.5 33.7 7.4 16 16.9 SW 17 24 9 13 1012.1 1012.1 0.0
23/10:30am 37.2 33.5 8.1 17 16.5 S 17 32 9 17 1012.2 1012.2 0.0
23/10:00am 36.9 33.2 9.5 19 15.9 S 19 30 10 16 1012.5 1012.5 0.0
23/09:30am 35.3 32.0 9.7 21 14.8 S 17 26 9 14 1012.5 1012.5 0.0
23/09:00am 34.4 30.4 10.3 23 14.0 S 22 30 12 16 1012.5 1012.5 0.0
23/08:30am 33.4 30.2 10.1 24 13.4 S 17 22 9 12 1012.5 1012.5 0.0
23/08:00am 30.2 28.2 12.6 34 10.4 W 15 17 8 9 1012.4 1012.4 0.0
23/07:30am 28.0 26.3 12.4 38 9.1 WSW 13 17 7 9 1012.3 1012.3 0.0
23/07:00am 26.7 24.8 13.1 43 8.0 WSW 15 20 8 11 1012.0 1012.0 0.0
23/06:30am 25.9 23.3 13.1 45 7.5 WSW 19 24 10 13 1011.9 1011.9 0.0
23/06:00am 25.1 22.4 13.6 49 6.7 WSW 20 22 11 12 1011.4 1011.4 0.0
23/05:30am 25.2 22.5 12.8 46 7.2 WSW 19 22 10 12 1011.2 1011.2 0.0
23/05:00am 25.5 22.8 13.0 46 7.3 WSW 19 20 10 11 1011.1 1011.1 0.0
23/04:30am 26.0 23.5 11.0 39 8.5 WSW 15 19 8 10 1011.0 1011.0 0.0
23/04:00am 26.2 23.1 10.4 37 8.8 SW 17 20 9 11 1010.8 1010.8 0.0
23/03:30am 25.6 22.2 10.6 39 8.4 SW 19 20 10 11 1010.8 1010.8 0.0
23/03:00am 25.7 23.9 12.2 43 7.8 SW 13 15 7 8 1010.9 1010.9 0.0
23/02:30am 26.4 24.2 13.2 44 7.7 WSW 17 20 9 11 1010.9 1010.9 0.0
23/02:00am 26.0 24.7 14.8 50 6.7 WSW 15 19 8 10 1010.9 1010.9 0.0
23/01:30am 25.9 24.2 14.7 50 6.7 W 17 19 9 10 1011.0 1011.0 0.0
23/01:00am 26.2 24.1 14.6 48 6.9 WSW 19 20 10 11 1011.4 1011.4 0.0
23/12:30am 26.5 24.6 15.2 49 6.8 WSW 19 22 10 12 1011.5 1011.5 0.0
23/12:00am 26.8 25.9 15.8 51 6.7 WSW 15 19 8 10 1011.7 1011.7 0.0
 
Date/Time
WST
Temp
°C
App
Temp
°C
Dew
Point
Rel
Hum
%
Delta-T
°C
Wind Press
QNH
hPa
Press
MSL
hPa
Rain
since 9 am
mm
Dir
 
Spd
km/h
Gust
km/h
Spd
kts
Gust
kts
22/11:30pm 27.2 25.1 17.1 54 6.3 WSW 24 30 13 16 1011.8 1011.8 0.0
22/11:00pm 27.5 26.7 17.9 55 6.1 WSW 19 24 10 13 1012.2 1012.2 0.0
22/10:30pm 27.5 26.7 18.5 58 5.7 WSW 20 24 11 13 1012.5 1012.5 0.0
22/10:00pm 27.8 27.4 18.8 58 5.8 WSW 19 22 10 12 1012.4 1012.4 0.0
22/09:30pm 28.1 27.3 18.5 56 6.1 WSW 20 24 11 13 1012.4 1012.4 0.0
22/09:00pm 28.4 27.4 18.8 56 6.2 W 22 28 12 15 1012.4 1012.4 0.0
22/08:30pm 28.7 27.5 18.5 54 6.5 WSW 22 28 12 15 1012.2 1012.2 0.0
22/08:00pm 28.9 27.7 19.2 55 6.3 WSW 24 28 13 15 1012.1 1012.1 0.0
22/07:30pm 29.1 28.1 19.7 57 6.1 W 24 30 13 16 1011.9 1011.9 0.0
22/07:00pm 29.7 28.5 20.0 56 6.4 W 26 30 14 16 1011.4 1011.4 0.0
22/06:30pm 30.1 28.6 19.5 53 6.9 W 26 32 14 17 1011.0 1011.0 0.0
22/06:00pm 29.4 27.0 21.1 61 5.5 W 35 43 19 23 1010.6 1010.6 0.0
22/05:30pm 30.5 28.3 20.4 54 6.7 W 32 37 17 20 1010.3 1010.3 0.0
22/05:00pm 30.9 28.5 19.9 52 7.3 W 32 39 17 21 1010.3 1010.3 0.0
22/04:30pm 30.7 27.9 20.3 53 6.9 W 35 43 19 23 1010.2 1010.2 0.0
22/04:00pm 31.2 26.8 20.2 52 7.3 W 43 52 23 28 1010.1 1010.1 0.0
22/03:30pm 32.6 28.8 19.8 46 8.5 W 39 46 21 25 1010.0 1010.0 0.0
22/03:00pm 33.3 28.3 17.9 40 9.9 W 41 48 22 26 1010.2 1010.2 0.0
22/02:30pm 34.9 29.8 15.7 31 12.1 W 37 46 20 25 1010.5 1010.5 0.0
22/02:00pm 36.1 33.1 16.8 32 12.4 W 28 35 15 19 1011.0 1011.0 0.0
22/01:30pm 36.2 32.1 15.9 30 12.9 W 32 41 17 22 1011.2 1011.2 0.0
22/01:00pm 35.6 31.6 16.8 32 12.0 W 33 39 18 21 1011.4 1011.4 0.0
22/12:30pm 36.1 32.3 15.8 30 12.8 W 30 39 16 21 1012.0 1012.0 0.0
22/12:00pm 35.1 33.1 16.4 32 11.9 WNW 22 28 12 15 1012.6 1012.6 0.0
22/11:30am 35.8 33.8 15.5 29 12.8 NW 20 26 11 14 1012.9 1012.9 0.0
22/11:00am 34.6 33.3 16.9 35 11.3 WNW 19 24 10 13 1013.3 1013.3 0.0
22/10:30am 33.3 31.5 17.0 37 10.4 NW 22 26 12 14 1013.7 1013.7 0.0
22/10:00am 34.0 31.1 12.9 28 12.7 WNW 20 24 11 13 1013.9 1013.9 0.0
22/09:30am 31.3 29.2 15.3 38 9.9 W 20 28 11 15 1014.2 1014.2 0.0
22/09:00am 29.4 28.0 16.6 46 8.0 W 19 24 10 13 1014.4 1014.4 0.0
22/08:30am 29.6 27.5 14.6 40 9.1 W 19 22 10 12 1014.0 1014.0 0.0
22/08:00am 28.6 26.2 12.5 37 9.4 WSW 17 20 9 11 1013.8 1013.8 0.0
22/07:30am 26.9 25.1 13.3 43 8.0 W 15 17 8 9 1013.7 1013.7 0.0
22/07:00am 25.3 23.4 12.9 46 7.2 WSW 15 17 8 9 1013.7 1013.7 0.0
22/06:30am 23.6 21.5 13.5 53 5.9 WSW 17 20 9 11 1013.5 1013.5 0.0
22/06:00am 22.5 20.8 14.6 61 4.7 WSW 17 20 9 11 1013.3 1013.3 0.0
22/05:30am 21.9 20.6 14.8 64 4.2 WSW 15 17 8 9 1013.2 1013.2 0.0
22/05:00am 21.8 20.7 14.4 63 4.3 WSW 13 15 7 8 1013.2 1013.2 0.0
22/04:30am 22.0 20.3 13.6 59 4.9 WSW 15 17 8 9 1012.9 1012.9 0.0
22/04:00am 22.2 20.2 12.7 55 5.4 WSW 15 17 8 9 1012.8 1012.8 0.0
22/03:30am 22.4 20.2 12.1 52 5.8 WSW 15 17 8 9 1012.8 1012.8 0.0
22/03:00am 22.1 19.6 9.6 45 6.7 SW 13 17 7 9 1012.9 1012.9 0.0
22/02:30am 22.4 18.9 8.9 42 7.2 WSW 17 19 9 10 1013.0 1013.0 0.0
22/02:00am 21.1 19.0 9.7 48 6.1 SW 11 13 6 7 1013.3 1013.3 0.0
22/01:30am 22.5 20.2 10.6 47 6.5 SW 13 13 7 7 1013.6 1013.6 0.0
22/01:00am 22.7 21.1 10.2 45 6.8 WSW 9 13 5 7 1013.8 1013.8 0.0
22/12:30am 22.7 20.2 8.4 40 7.6 SW 11 15 6 8 1013.9 1013.9 0.0
22/12:00am 23.9 21.3 9.5 40 7.8 WSW 13 17 7 9 1014.0 1014.0 0.0
 
Date/Time
WST
Temp
°C
App
Temp
°C
Dew
Point
Rel
Hum
%
Delta-T
°C
Wind Press
QNH
hPa
Press
MSL
hPa
Rain
since 9 am
mm
Dir
 
Spd
km/h
Gust
km/h
Spd
kts
Gust
kts
21/11:30pm 24.3 21.4 9.8 40 7.9 WSW 15 19 8 10 1014.2 1014.2 0.0
21/11:00pm 24.9 21.8 11.5 43 7.6 WSW 19 22 10 12 1014.7 1014.7 0.0
21/10:30pm 25.6 22.0 11.7 42 7.9 WSW 22 24 12 13 1014.8 1014.8 0.0
21/10:00pm 26.0 23.0 12.5 43 7.8 WSW 20 26 11 14 1015.2 1015.2 0.0
21/09:30pm 26.3 23.5 13.1 44 7.7 WSW 20 24 11 13 1015.3 1015.3 0.0
21/09:00pm 26.6 23.0 13.0 43 7.9 WSW 24 30 13 16 1015.3 1015.3 0.0
21/08:30pm 27.1 23.3 11.2 37 9.0 W 22 26 12 14 1015.2 1015.2 0.0
21/08:00pm 27.3 23.3 11.7 37 8.9 WSW 24 28 13 15 1015.1 1015.1 0.0
21/07:30pm 27.5 24.9 14.8 45 7.7 W 22 28 12 15 1014.9 1014.9 0.0
21/07:00pm 27.6 25.1 16.2 49 7.0 W 24 32 13 17 1014.8 1014.8 0.0
21/06:30pm 27.5 24.9 17.7 55 6.2 W 28 33 15 18 1014.5 1014.5 0.0
21/06:00pm 28.1 24.8 16.1 48 7.4 W 28 35 15 19 1014.4 1014.4 0.0
21/05:30pm 28.6 25.5 17.5 51 7.0 W 30 33 16 18 1014.1 1014.1 0.0
21/05:00pm 29.8 25.9 15.5 42 8.8 W 30 35 16 19 1013.8 1013.8 0.0
21/04:30pm 30.5 27.0 15.4 40 9.3 W 28 33 15 18 1013.5 1013.5 0.0
21/04:00pm 30.8 27.2 15.2 38 9.6 W 28 33 15 18 1013.5 1013.5 0.0
21/03:30pm 31.3 27.7 15.3 38 9.9 W 28 32 15 17 1013.5 1013.5 0.0
21/03:00pm 32.7 28.7 11.8 28 12.3 WNW 24 30 13 16 1013.7 1013.7 0.0
21/02:30pm 32.0 27.6 11.7 28 11.9 WNW 26 32 14 17 1013.8 1013.8 0.0
21/02:00pm 32.4 28.7 11.6 28 12.2 WNW 22 28 12 15 1014.1 1014.1 0.0
21/01:30pm 33.0 29.1 10.9 26 12.8 WNW 22 26 12 14 1014.5 1014.5 0.0
21/01:00pm 32.8 29.4 11.3 27 12.6 WNW 20 24 11 13 1014.8 1014.8 0.0
21/12:30pm 32.8 29.6 11.3 27 12.6 WNW 19 24 10 13 1015.2 1015.2 0.0
21/12:00pm 31.8 28.4 9.3 25 12.7 WNW 17 24 9 13 1015.5 1015.5 0.0
21/11:30am 31.3 29.9 14.4 35 10.3 NW 15 20 8 11 1015.9 1015.9 0.0
21/11:00am 30.3 29.1 16.0 42 8.9 WNW 17 20 9 11 1016.2 1016.2 0.0
21/10:30am 30.0 27.9 12.4 34 10.3 WNW 15 19 8 10 1016.4 1016.4 0.0
21/10:00am 29.5 27.6 12.9 36 9.8 WNW 15 20 8 11 1016.6 1016.6 0.0
21/09:30am 27.9 26.8 14.2 43 8.2 W 13 15 7 8 1016.5 1016.5 0.0
21/09:00am 26.2 26.1 15.9 53 6.3 W 11 15 6 8 1016.6 1016.6 0.0
21/08:30am 24.7 25.1 16.4 60 5.1 W 9 13 5 7 1016.7 1016.7 0.0
21/08:00am 23.8 24.4 16.8 65 4.3 W 9 13 5 7 1016.6 1016.6 0.0
21/07:30am 22.5 22.2 16.5 69 3.7 W 13 17 7 9 1016.5 1016.5 0.0
21/07:00am 21.5 20.7 16.0 71 3.3 WSW 15 19 8 10 1016.2 1016.2 0.0
21/06:30am 20.5 19.8 16.3 77 2.5 WSW 15 20 8 11 1015.8 1015.8 0.0
21/06:00am 20.0 19.3 16.4 80 2.2 WSW 15 20 8 11 1015.5 1015.5 0.0
21/05:30am 20.2 18.6 16.6 80 2.2 WSW 20 24 11 13 1015.3 1015.3 0.0
21/05:00am 20.3 19.3 16.7 80 2.2 WSW 17 20 9 11 1015.2 1015.2 0.0
21/04:30am 20.4 19.9 17.0 81 2.1 WSW 15 19 8 10 1015.0 1015.0 0.0
21/04:00am 20.9 20.1 17.9 83 1.9 WSW 19 22 10 12 1014.8 1014.8 0.0
21/03:30am 21.2 21.1 18.8 86 1.5 WSW 17 20 9 11 1014.6 1014.6 0.0
21/03:00am 21.3 21.2 18.7 85 1.6 WSW 17 22 9 12 1014.7 1014.7 0.0
21/02:30am 21.3 21.3 18.9 86 1.5 SW 17 20 9 11 1014.7 1014.7 0.0
21/02:00am 20.9 21.2 18.7 87 1.4 SW 15 19 8 10 1014.9 1014.9 0.0
21/01:30am 21.2 21.1 18.8 86 1.5 SW 17 22 9 12 1015.0 1015.0 0.0
21/01:00am 21.9 20.6 19.1 84 1.8 SW 24 30 13 16 1015.2 1015.2 0.0
21/12:30am 22.1 21.6 19.1 83 1.9 WSW 20 26 11 14 1015.5 1015.5 0.0
21/12:00am 22.3 21.4 19.1 82 2.0 W 22 28 12 15 1015.4 1015.4 0.0
 
Date/Time
WST
Temp
°C
App
Temp
°C
Dew
Point
Rel
Hum
%
Delta-T
°C
Wind Press
QNH
hPa
Press
MSL
hPa
Rain
since 9 am
mm
Dir
 
Spd
km/h
Gust
km/h
Spd
kts
Gust
kts
20/11:30pm 22.6 21.4 19.2 81 2.2 WSW 24 32 13 17 1015.6 1015.6 0.0
20/11:00pm 22.8 21.1 19.0 79 2.4 WSW 26 35 14 19 1016.0 1016.0 0.0
20/10:30pm 23.0 20.6 18.3 75 2.9 WSW 28 35 15 19 1016.0 1016.0 0.0
20/10:00pm 23.3 21.3 17.5 70 3.6 WSW 24 28 13 15 1015.9 1015.9 0.0
20/09:30pm 23.9 21.3 17.9 69 3.8 W 28 32 15 17 1015.9 1015.9 0.0
20/09:00pm 24.1 22.2 18.5 71 3.5 W 26 32 14 17 1015.7 1015.7 0.0

Other Formats:

Comma delimited format used in spreadsheet applications
http://www.bom.gov.au/fwo/IDW60801/IDW60801.95307.axf

JavaScript Object Notation format (JSON) in row-major order
http://www.bom.gov.au/fwo/IDW60801/IDW60801.95307.json